Regional Weather Roundup
Issued by NWS Midland/Odessa, TX

Skip options and go directly to product.
Home | Oldest Version | Previous Version | Current Version | All | Text Only | Save Text | Print | Product List | Glossary On

Skip product version selection by date and time.   
190
ASUS44 KMAF 012010
RWRMAF
MIDLAND AREA WEATHER ROUNDUP
NATIONAL WEATHER SERVICE MIDLAND TX
300 PM CDT FRI JUL 01 2016

...IN SOUTHWEST TEXAS AND SOUTHEAST NEW MEXICO...

CITY           SKY/WX    TMP DP  RH WIND       PRES   REMARKS
ALPINE         CLOUDY    87  52  29 S5        30.17F
ANDREWS        FAIR      93  55  28 S14G21    30.07F
ARTESIA        SUNNY     95  52  23 SE10G23   30.01F
BIG SPRING     MOSUNNY   90  58  33 SE15      30.07F
CARLSBAD       MOSUNNY   95  51  22 E12G26    30.00F
DRYDEN           N/A     96  60  30 SE14G25   29.98F
FORT STOCKTON  PTSUNNY   95  58  28 SE13G25   30.02F
GUAD PASS      MOSUNNY   88  54  31 SW15G26   30.19F
HOBBS          MOSUNNY   93  48  21 SE17G25   30.08F
MARFA          CLOUDY   N/A N/A N/A SE12      30.16F
MIDLAND AIRPK  SUNNY     94  55  26 S10G23    30.06F
MIDLAND INTL   PTSUNNY   92  60  34 SE20      30.05F
ODESSA         MOSUNNY   93  55  27 S15G26    30.06F
PECOS          MOSUNNY   99  56  24 E12G24    29.97F
PRESIDIO       FAIR      96  60  30 SE16G25   30.00S
SEMINOLE       MOSUNNY   93  51  23 S13G22    30.08F
SNYDER           N/A     91  62  37 SE8       30.06F
WINK           SUNNY     95  59  30 SE12G21   30.00F
$$
...OTHER STATIONS IN TEXAS...

CITY           SKY/WX    TMP DP  RH WIND       PRES   REMARKS
ABILENE        MOSUNNY   93  66  40 SE13      30.04F
AMARILLO       MOSUNNY   89  63  41 S14G22    30.10F
AUSTIN         MOSUNNY   93  70  46 SE10      29.99F
BROWNSVILLE    SUNNY     95  73  48 S17G25    29.96F HX 104
CORPUS CHRISTI MOSUNNY   94  76  55 SE12      29.95F HX 106
DALLAS FTW     MOSUNNY   97  65  34 S8        29.99F
DEL RIO        MOSUNNY   98  65  33 E13G20    29.93F HX 101
EL PASO        LGT RAIN  82  59  45 W8        30.11F
HOUSTON INT    MOSUNNY   94  73  50 E7        29.99F HX 103
LUBBOCK        PTSUNNY   92  57  30 SE21G29   30.08F
SAN ANGELO     MOSUNNY   91  32  12 SE9       30.02F
SAN ANTONIO    MOSUNNY   92  69  47 VRB6      30.01F
WACO           MOSUNNY   95  67  39 SE8       30.00F
WICHITA FALLS  NOT AVBL
$$
...OTHER LOCATIONS IN NEW MEXICO...

CITY           SKY/WX    TMP DP  RH WIND       PRES   REMARKS
ALAMAGORDO     PTSUNNY   81  57  44 W15       30.14S
ALBUQUERQUE    PTSUNNY   76  56  49 SW24G33   30.19R
CANNON AFB     MOSUNNY   90  54  29 SE18G24   30.09F
CLOVIS         MOSUNNY   90  59  35 SE14G20   30.10F
HOLLOMAN AFB   DRIZZLE   79  59  51 W13       30.11F
ROSWELL        MOSUNNY   97  47  18 SE14      30.01F
RUIDOSO          N/A     79  50  36 SW20G29   30.27F
SANTA FE       LGT RAIN  73  56  54 W12       30.19F
TRUTH OR CONSE CLOUDY    70  64  81 SW5       30.17F
TUCUMCARI      MOSUNNY   94  46  19 S15G24    30.05F
$$

USA.gov is the U.S. government's official web portal to all federal, state and local government web resources and services.